x

Buoy A01 - Mass. Bay/stellwagen (44029) Wave Buoy

1:04pm - Thu 21st Sep 2017 All times are EDT. -4 hours from GMT.

  • Sig Wave height 10.5ft
  • Peak Period 11s
  • Wind
    27mph, 31mph gusts
  • Sea Temp 62°f
  • 空気 Temp 64°f
  • Sea Pressure 1014.9mb
  • Buoy A01 - Mass. Bay/stellwagen
  • Buoy A01 - Mass. Bay/stellwagen

More Historic Weather Station data

Upgrade to MSW Pro to gain access to the past 30 days of data for over 8000 Wavebouys and Weather Stations around the globe.

Join

Comparision Forecast

View Surf forecast
   
Thu 09/21 1:04pm 10.5ft 11s 27 31 mph 1014.9mb 62f 64f
12:04pm 10.5ft 11s 27 31 mph 1014.9mb 62f 64f
11:04am 12ft 11s 27 34 mph 1015mb 62f 63f
10:04am 11.5ft 8s 29
mph
1014.8mb 62f 64f
9:04am 10ft 11s 27 34 mph 1014.2mb 62f 64f
8:04am 9ft 8s 27 31 mph 1013.9mb 62f 64f
7:04am 10ft 8s 29
mph
1013.2mb 62f 65f
6:04am 9ft 8s 29
mph
1012mb 62f 65f
5:04am 9ft 8s 29
mph
1011.4mb 62f 66f
4:04am 8.5ft 8s 27 34 mph 1011mb 62f 66f
3:04am 8.5ft 6s 27 31 mph 1010.5mb 62f 66f
2:04am 8.5ft 11s 25 27 mph 1010.8mb 62f 66f
1:04am 9ft 6s 22 27 mph 1010.7mb 62f 66f
12:04am 7.5ft 6s 25 29 mph 1010mb 62f 66f
Wed 09/20 11:04pm 6ft 6s 22 27 mph 1010.4mb 62f 66f
10:04pm 7.5ft 6s 18 20 mph 1010.7mb 62f 64f
9:04pm 7ft 6s 20 22 mph 1010.5mb 62f 64f
8:04pm 7ft 6s 18 22 mph 1010.7mb 62f 64f
7:04pm 8ft 6s 20 25 mph 1010.7mb 62f 65f
6:04pm 7.5ft 6s 20 27 mph 1010.5mb 62f 64f
5:04pm 9ft 6s 20 25 mph 1010.4mb 62f 64f
4:04pm 8ft 6s 27 31 mph 1009.9mb 62f 64f
3:04pm 7ft 6s 25 31 mph 1010.1mb 62f 64f
2:04pm 6ft 6s 27 31 mph 1009.7mb 62f 64f
1:04pm 6ft 6s 27 31 mph 1010.3mb 62f 64f
12:04pm 7ft 6s 25 29 mph 1010.7mb 62f 63f
11:04am 7ft 6s 22 27 mph 1011mb 62f 64f
10:04am 7ft 6s 25 27 mph 1011.5mb 62f 63f
9:04am 6ft 5s 22 27 mph 1011.4mb 62f 64f
8:04am 6ft 5s 22 27 mph 1011.4mb 63f 64f
7:04am 6.5ft 5s 25 29 mph 1011.6mb 63f 63f
6:04am 7ft 5s 22 27 mph 1011.7mb 63f 63f
5:04am 6ft 5s 25 29 mph 1011.5mb 63f 63f
4:04am 7ft 8s 22 27 mph 1011.6mb 63f 63f
3:04am 4.5ft 5s 22 29 mph 1012mb 63f 63f
2:04am 5ft 5s 22 27 mph 1012.7mb 63f 63f
1:04am 6ft 11s 18 22 mph 1012.9mb 63f 64f
12:04am 4ft 5s 20 22 mph 1013.4mb 64f 64f
Tue 09/19 11:04pm 4.5ft 5s 18 25 mph 1014.3mb 64f 64f
10:04pm 5.5ft 5s 20 25 mph 1014.6mb 64f 63f
9:04pm 6ft 11s 20 25 mph 1014.9mb 64f 63f
8:04pm 4.5ft 5s 18 22 mph 1015.1mb 64f 63f
7:04pm 4.5ft 8s 18 22 mph 1015.3mb 64f 63f
6:04pm 4.5ft 5s 18 20 mph 1015.5mb 64f 63f
5:04pm 4ft 5s 16 18 mph 1015.7mb 64f 63f
4:04pm 4ft 5s 18 20 mph 1016.3mb 64f 64f
3:04pm 3.5ft 5s 18 22 mph 1016.6mb 64f 64f
2:04pm 3.5ft 5s 16 20 mph 1017.3mb 63f 63f
1:04pm 5ft 11s 20 22 mph 1017.5mb 63f 63f
12:04pm 3.5ft 4s 18 20 mph 1018.7mb 63f 63f
11:04am 3.5ft 4s 18 22 mph 1018.6mb 63f 63f
10:04am 3ft 4s 18 20 mph 1019mb 64f 63f
9:04am 3ft 4s 18 20 mph 1019.2mb 64f 63f
8:04am 3ft 4s 16 20 mph 1019.2mb 64f 63f
7:04am 2.5ft 4s 16 18 mph 1019.2mb 64f 64f
6:04am 2.5ft 4s 16 18 mph 1019mb 64f 64f
5:04am 3ft 8s 13 18 mph 1019.2mb 64f 64f
4:04am 2ft 5s 16 18 mph 1019.7mb 64f 64f
3:04am 2ft 5s 13 16 mph 1019.7mb 64f 64f
2:04am  -   -  11 13 mph 1020mb 64f 64f
1:04am 2ft 4s 9 11 mph 1020.4mb 64f 64f
12:04am 1.6ft 4s 9 11 mph 1020.5mb 64f 64f
Mon 09/18 11:04pm 1.6ft 4s 11 13 mph 1020.7mb 64f 64f
10:04pm 1.6ft 4s 11 13 mph 1021mb 64f 64f
9:04pm 2.5ft 8s 11 13 mph 1021.2mb 64f 64f
8:04pm 1.3ft 3s 13 16 mph 1020.8mb 64f 64f
7:04pm 1ft 3s 9 11 mph 1020.7mb 64f 64f
6:04pm 1ft 3s 11 13 mph 1020.5mb 65f 65f
5:04pm  -   -  9 11 mph 1020.4mb 65f 65f
4:04pm 2.5ft 11s 7 9 mph 1020.6mb 65f 65f
3:04pm  -   -  7 9 mph 1020.9mb 65f 65f
2:04pm 3.5ft 16s 9 11 mph 1021.1mb 65f 65f
1:04pm 2.5ft 16s 9 9 mph 1021.4mb 65f 65f
12:04pm 2.5ft 16s 7 7 mph 1021.4mb 65f 65f
11:04am 2.5ft 11s 7 9 mph 1021.1mb 65f 65f
10:04am 3ft 11s 7 9 mph 1021.1mb 65f 65f
9:04am 2ft 16s 4 7 mph 1021.3mb 65f 65f
8:04am 2.5ft 11s 7 9 mph 1021.1mb 65f 65f
7:04am 2ft 11s 7 7 mph 1021mb 65f 65f
6:04am 2.5ft 11s 7 7 mph 1020.5mb 65f 64f
5:04am 2.5ft 11s 7 7 mph 1020.3mb 65f 64f
4:04am 2.5ft 8s 4 4 mph 1020.2mb 65f 65f
3:04am 2ft 11s 4 4 mph 1020.3mb 65f 65f
2:04am 2.5ft 11s 4 7 mph 1020.1mb 65f 65f
1:04am 2.5ft 11s 4 7 mph 1020mb 65f 66f
12:04am 2ft 11s 2 4 mph 1020.1mb 65f 65f
Sun 09/17 11:04pm 2.5ft 11s 4 7 mph 1020.3mb 65f 65f
10:04pm 2.5ft 11s 9 11 mph 1020.1mb 65f 65f
9:04pm 1.3ft 3s 11 13 mph 1020.1mb 65f 65f
8:04pm 1.3ft 3s 11 13 mph 1019.7mb 65f 64f